This is the latest recevied weather packets stored in our database for station/object N3FAA. If no packets are shown the sender has not sent any weather packets the latest 10 day(s).
| Time | Temp. | Humidity | Pressure | Rain* | Wind** | Luminosity | Snow |
|---|---|---|---|---|---|---|---|
| 1777766527 | 27.78° C | 26% | 1007.9 hPa | 0 mm | - | 435 W/m² | - |
| 1777766224 | 28.33° C | 25% | 1007.7 hPa | 0 mm | - | 413 W/m² | - |
| 1777765922 | 28.33° C | 24% | 1007.8 hPa | 0 mm | - | 406 W/m² | - |
| 1777765618 | 28.33° C | 24% | 1007.8 hPa | 0 mm | - | 459 W/m² | - |
| 1777765315 | 28.33° C | 24% | 1007.7 hPa | 0 mm | - | 498 W/m² | - |
| 1777765011 | 28.89° C | 21% | 1007.8 hPa | 0 mm | - | 520 W/m² | - |
| 1777764708 | 28.89° C | 22% | 1007.7 hPa | 0 mm | - | 534 W/m² | - |
| 1777764404 | 28.89° C | 22% | 1007.8 hPa | 0 mm | - | 559 W/m² | - |
| 1777764101 | 29.44° C | 22% | 1008 hPa | 0 mm | - | 586 W/m² | - |
| 1777763798 | 28.33° C | 22% | 1008.1 hPa | 0 mm | - | 596 W/m² | - |
| 1777763496 | 28.89° C | 22% | 1007.9 hPa | 0 mm | - | 620 W/m² | - |
| 1777763194 | 28.89° C | 20% | 1008.3 hPa | 0 mm | - | 639 W/m² | - |
| 1777762892 | 28.89° C | 21% | 1008.3 hPa | 0 mm | - | 640 W/m² | - |
| 1777762587 | 28.89° C | 22% | 1008.1 hPa | 0 mm | - | 625 W/m² | - |
| 1777762285 | 29.44° C | 22% | 1008.5 hPa | 0 mm | - | 620 W/m² | - |
| 1777761981 | 28.89° C | 22% | 1008.5 hPa | 0 mm | - | 576 W/m² | - |
| 1777761678 | 29.44° C | 23% | 1008.5 hPa | 0 mm | - | 529 W/m² | - |
| 1777761376 | 29.44° C | 21% | 1008.5 hPa | 0 mm | - | 587 W/m² | - |
| 1777761074 | 28.89° C | 21% | 1008.9 hPa | 0 mm | - | 627 W/m² | - |
| 1777760771 | 28.89° C | 22% | 1008.7 hPa | 0 mm | - | 635 W/m² | - |
| 1777760467 | 28.89° C | 22% | 1008.9 hPa | 0 mm | - | 614 W/m² | - |
| 1777760163 | 30° C | 22% | 1009 hPa | 0 mm | - | 636 W/m² | - |
| 1777759861 | 29.44° C | 22% | 1008.9 hPa | 0 mm | - | 645 W/m² | - |
| 1777759556 | 29.44° C | 22% | 1008.8 hPa | 0 mm | - | 640 W/m² | - |
| 1777759253 | 29.44° C | 21% | 1009 hPa | 0 mm | - | 636 W/m² | - |
* Rain latest hour (hover to see other rain measurements)
** Current wind speed in m/s (hover to see current wind gust speed)